• In Czech Republic
  • List of Countries
  • For 7 days
  • Water Temperature
  • Satellite Maps
  • Weather Map
  • Weather Widgets
  • user-avatar
    Login

    Hourly Weather Yulara

    Today, 26 May, Friday

    Time Temperature Precipitation Wind Pressure Humidity
    00:00 +19°C° 0.3 mm 3 mps 721 mmHg 55%
    01:00 +19°C° 0.3 mm 3 mps 721 mmHg 55%
    02:00 +18°C° 0.3 mm 3 mps 720 mmHg 56%
    03:00 +18°C° 0 mm 2 mps 720 mmHg 58%
    04:00 +18°C° 0.4 mm 2 mps 720 mmHg 56%
    05:00 +18°C° 0.4 mm 2 mps 720 mmHg 55%
    06:00 +17°C° 0.4 mm 2 mps 720 mmHg 53%
    07:00 +18°C° 0.3 mm 2 mps 721 mmHg 49%
    08:00 +19°C° 0.3 mm 2 mps 721 mmHg 45%
    09:00 +20°C° 0 mm 2 mps 721 mmHg 37%
    10:00 +22°C° 0 mm 3 mps 721 mmHg 34%
    11:00 +24°C° 0 mm 3 mps 721 mmHg 30%
    12:00 +26°C° 0 mm 4 mps 720 mmHg 27%
    13:00 +26°C° 0 mm 4 mps 720 mmHg 28%
    14:00 +27°C° 0 mm 5 mps 720 mmHg 28%
    15:00 +27°C° 0 mm 5 mps 719 mmHg 29%
    16:00 +26°C° 0 mm 4 mps 719 mmHg 32%
    17:00 +26°C° 0 mm 3 mps 719 mmHg 34%
    18:00 +25°C° 0 mm 3 mps 719 mmHg 37%
    19:00 +24°C° 0.1 mm 3 mps 719 mmHg 39%
    20:00 +24°C° 0.1 mm 2 mps 719 mmHg 41%
    21:00 +23°C° 0.1 mm 2 mps 720 mmHg 43%
    22:00 +21°C° 0 mm 2 mps 720 mmHg 44%
    23:00 +21°C° 0 mm 2 mps 720 mmHg 45%

    Tomorrow, 27 May, Saturday

    Time Temperature Precipitation Wind Pressure Humidity
    00:00 +20°C° 0 mm 3 mps 720 mmHg 47%
    01:00 +20°C° 0 mm 3 mps 720 mmHg 46%
    02:00 +19°C° 0 mm 3 mps 719 mmHg 45%
    03:00 +19°C° 0 mm 4 mps 719 mmHg 44%
    04:00 +19°C° 0 mm 4 mps 719 mmHg 42%
    05:00 +19°C° 0 mm 4 mps 719 mmHg 41%
    06:00 +18°C° 0 mm 3 mps 719 mmHg 39%
    07:00 +19°C° 0 mm 3 mps 720 mmHg 36%
    08:00 +20°C° 0 mm 3 mps 720 mmHg 32%
    09:00 +21°C° 0 mm 2 mps 721 mmHg 29%
    10:00 +23°C° 0 mm 2 mps 721 mmHg 26%
    11:00 +24°C° 0 mm 1 mps 721 mmHg 23%
    12:00 +25°C° 0 mm 1 mps 721 mmHg 19%
    13:00 +25°C° 0 mm 1 mps 720 mmHg 20%
    14:00 +25°C° 0 mm 2 mps 720 mmHg 22%
    15:00 +25°C° 0 mm 2 mps 719 mmHg 23%
    16:00 +24°C° 0 mm 2 mps 720 mmHg 25%
    17:00 +23°C° 0 mm 2 mps 720 mmHg 28%
    18:00 +22°C° 0 mm 1 mps 720 mmHg 31%
    19:00 +21°C° 0 mm 1 mps 720 mmHg 33%
    20:00 +20°C° 0 mm 1 mps 720 mmHg 35%
    21:00 +20°C° 0 mm 1 mps 721 mmHg 36%
    22:00 +19°C° 0 mm 1 mps 721 mmHg 37%
    23:00 +19°C° 0 mm 1 mps 721 mmHg 37%

    Day after tomorrow, 28 May, Sunday

    Time Temperature Precipitation Wind Pressure Humidity
    00:00 +19°C° 0 mm 1 mps 721 mmHg 37%
    01:00 +17°C° 0 mm 2 mps 721 mmHg 37%
    02:00 +17°C° 0 mm 3 mps 721 mmHg 37%
    03:00 +15°C° 0 mm 4 mps 721 mmHg 37%
    04:00 +15°C° 0 mm 4 mps 721 mmHg 40%
    05:00 +14°C° 0 mm 4 mps 721 mmHg 42%
    06:00 +14°C° 0 mm 4 mps 721 mmHg 45%
    07:00 +14°C° 0 mm 5 mps 722 mmHg 45%
    08:00 +15°C° 0 mm 5 mps 722 mmHg 46%
    09:00 +16°C° 0 mm 5 mps 723 mmHg 47%
    10:00 +17°C° 0 mm 5 mps 723 mmHg 43%
    11:00 +20°C° 0 mm 5 mps 723 mmHg 38%
    12:00 +21°C° 0 mm 5 mps 723 mmHg 34%
    13:00 +22°C° 0 mm 4 mps 722 mmHg 33%
    14:00 +22°C° 0 mm 4 mps 722 mmHg 32%
    15:00 +24°C° 0 mm 3 mps 721 mmHg 30%
    16:00 +22°C° 0 mm 3 mps 721 mmHg 33%
    17:00 +21°C° 0 mm 3 mps 721 mmHg 36%
    18:00 +20°C° 0 mm 3 mps 721 mmHg 39%
    19:00 +19°C° 0 mm 4 mps 722 mmHg 42%
    20:00 +18°C° 0 mm 4 mps 722 mmHg 45%
    21:00 +17°C° 0 mm 4 mps 723 mmHg 49%
    22:00 +17°C° 0 mm 4 mps 723 mmHg 49%
    23:00 +15°C° 0 mm 4 mps 723 mmHg 50%

    29 May, Monday

    Time Temperature Precipitation Wind Pressure Humidity
    00:00 +14°C° 0 mm 4 mps 723 mmHg 51%
    01:00 +14°C° 0 mm 4 mps 723 mmHg 51%
    02:00 +13°C° 0 mm 4 mps 723 mmHg 51%
    03:00 +13°C° 0 mm 4 mps 722 mmHg 51%
    04:00 +12°C° 0 mm 4 mps 723 mmHg 54%
    05:00 +12°C° 0 mm 4 mps 723 mmHg 57%
    06:00 +11°C° 0 mm 4 mps 723 mmHg 60%
    07:00 +12°C° 0 mm 4 mps 723 mmHg 59%
    08:00 +13°C° 0 mm 5 mps 724 mmHg 57%
    09:00 +13°C° 0 mm 5 mps 724 mmHg 56%
    10:00 +15°C° 0 mm 5 mps 724 mmHg 52%
    11:00 +17°C° 0 mm 4 mps 724 mmHg 47%
    12:00 +18°C° 0 mm 4 mps 723 mmHg 42%
    13:00 +19°C° 0 mm 3 mps 723 mmHg 40%
    14:00 +20°C° 0 mm 2 mps 722 mmHg 38%
    15:00 +21°C° 0 mm 1 mps 722 mmHg 36%
    16:00 +21°C° 0 mm 1 mps 722 mmHg 38%
    17:00 +19°C° 0 mm 2 mps 722 mmHg 39%
    18:00 +18°C° 0 mm 2 mps 722 mmHg 41%
    19:00 +17°C° 0 mm 2 mps 722 mmHg 43%
    20:00 +17°C° 0 mm 2 mps 723 mmHg 44%
    21:00 +16°C° 0 mm 2 mps 723 mmHg 45%
    22:00 +16°C° 0 mm 2 mps 723 mmHg 47%
    23:00 +15°C° 0 mm 2 mps 723 mmHg 48%

    30 May, Tuesday

    Time Temperature Precipitation Wind Pressure Humidity
    00:00 +15°C° 0 mm 2 mps 723 mmHg 50%
    01:00 +14°C° 0 mm 2 mps 723 mmHg 51%
    02:00 +14°C° 0 mm 2 mps 723 mmHg 52%
    03:00 +13°C° 0 mm 2 mps 722 mmHg 54%
    04:00 +13°C° 0 mm 2 mps 723 mmHg 55%
    05:00 +12°C° 0 mm 2 mps 723 mmHg 55%
    06:00 +12°C° 0 mm 2 mps 723 mmHg 56%
    07:00 +12°C° 0 mm 3 mps 724 mmHg 53%
    08:00 +13°C° 0 mm 3 mps 724 mmHg 49%
    09:00 +14°C° 0 mm 4 mps 725 mmHg 46%
    10:00 +15°C° 0 mm 4 mps 725 mmHg 42%
    11:00 +17°C° 0 mm 5 mps 725 mmHg 38%
    12:00 +19°C° 0 mm 5 mps 725 mmHg 34%
    13:00 +19°C° 0 mm 5 mps 724 mmHg 33%
    14:00 +20°C° 0 mm 6 mps 724 mmHg 31%
    15:00 +20°C° 0 mm 6 mps 723 mmHg 29%
    16:00 +19°C° 0 mm 5 mps 723 mmHg 32%
    17:00 +17°C° 0 mm 5 mps 724 mmHg 34%
    18:00 +16°C° 0 mm 5 mps 724 mmHg 36%
    19:00 +15°C° 0 mm 5 mps 724 mmHg 38%
    20:00 +15°C° 0 mm 5 mps 725 mmHg 40%
    21:00 +14°C° 0 mm 5 mps 725 mmHg 43%
    22:00 +14°C° 0 mm 5 mps 725 mmHg 48%
    23:00 +13°C° 0 mm 5 mps 725 mmHg 54%

    31 May, Wednesday

    Time Temperature Precipitation Wind Pressure Humidity
    00:00 +11°C° 0 mm 6 mps 725 mmHg 59%
    01:00 +12°C° 0 mm 5 mps 725 mmHg 61%
    02:00 +10°C° 0 mm 5 mps 725 mmHg 63%
    03:00 +9°C° 0 mm 5 mps 725 mmHg 65%
    04:00 +9°C° 0 mm 5 mps 726 mmHg 65%
    05:00 +8°C° 0 mm 5 mps 726 mmHg 65%
    06:00 +8°C° 0 mm 5 mps 726 mmHg 65%
    07:00 +9°C° 0 mm 6 mps 726 mmHg 62%
    08:00 +9°C° 0 mm 7 mps 727 mmHg 58%
    09:00 +10°C° 0 mm 7 mps 727 mmHg 54%
    10:00 +11°C° 0 mm 7 mps 726 mmHg 47%
    11:00 +14°C° 0 mm 7 mps 726 mmHg 41%
    12:00 +15°C° 0 mm 7 mps 725 mmHg 34%
    13:00 +16°C° 0 mm 7 mps 725 mmHg 32%
    14:00 +16°C° 0 mm 7 mps 725 mmHg 29%
    15:00 +17°C° 0 mm 7 mps 724 mmHg 26%
    16:00 +16°C° 0 mm 7 mps 724 mmHg 28%
    17:00 +15°C° 0 mm 6 mps 725 mmHg 30%
    18:00 +14°C° 0 mm 5 mps 725 mmHg 32%
    19:00 +13°C° 0 mm 5 mps 726 mmHg 33%
    20:00 +12°C° 0 mm 5 mps 726 mmHg 35%
    21:00 +10°C° 0 mm 5 mps 726 mmHg 36%
    22:00 +10°C° 0 mm 5 mps 726 mmHg 38%
    23:00 +9°C° 0 mm 5 mps 726 mmHg 40%
    Show more